TimeEST,TemperatureF,Dew PointF,Humidity,Sea Level PressureIn,VisibilityMPH,Wind Direction,Wind SpeedMPH,Gust SpeedMPH,PrecipitationIn,Events,Conditions,WindDirDegrees,DateUTC
12:52 AM,37.9,27.0,65,29.90,10.0,West,12.7,-,N/A,,Overcast,280,2012-11-04 04:52:00
1:52 AM,37.0,27.0,67,29.91,10.0,WNW,5.8,-,N/A,,Overcast,290,2012-11-04 05:52:00
1:52 AM,37.0,27.0,67,29.91,10.0,West,12.7,-,N/A,,Overcast,260,2012-11-04 06:52:00
2:52 AM,36.0,27.0,70,29.91,10.0,WSW,10.4,-,N/A,,Mostly Cloudy,250,2012-11-04 07:52:00
3:33 AM,35.6,26.6,70,29.89,10.0,West,8.1,-,N/A,,Overcast,260,2012-11-04 08:33:00
3:52 AM,37.0,27.0,67,29.92,10.0,West,10.4,-,N/A,,Overcast,260,2012-11-04 08:52:00
4:52 AM,37.0,27.0,67,29.94,10.0,West,8.1,-,N/A,,Overcast,270,2012-11-04 09:52:00
5:52 AM,36.0,27.0,70,29.95,10.0,West,12.7,-,N/A,,Overcast,270,2012-11-04 10:52:00
6:52 AM,36.0,27.0,70,29.96,10.0,West,11.5,17.3,N/A,,Overcast,270,2012-11-04 11:52:00
7:38 AM,37.4,26.6,65,29.95,10.0,West,11.5,-,N/A,,Overcast,270,2012-11-04 12:38:00
7:52 AM,37.0,27.0,67,29.97,10.0,West,9.2,-,N/A,,Overcast,260,2012-11-04 12:52:00
8:52 AM,39.9,27.0,60,29.96,10.0,West,10.4,-,N/A,,Overcast,260,2012-11-04 13:52:00
9:00 AM,39.2,26.6,61,29.94,10.0,West,10.4,-,N/A,,Overcast,260,2012-11-04 14:00:00
9:52 AM,39.9,26.1,58,29.96,10.0,WNW,9.2,16.1,N/A,,Overcast,290,2012-11-04 14:52:00
10:19 AM,41.0,26.6,57,29.94,10.0,Variable,4.6,-,N/A,,Overcast,0,2012-11-04 15:19:00
10:43 AM,39.2,26.6,61,29.94,10.0,Variable,6.9,18.4,N/A,,Overcast,0,2012-11-04 15:43:00
10:52 AM,41.0,27.0,57,29.96,10.0,West,8.1,-,N/A,,Overcast,280,2012-11-04 15:52:00
11:52 AM,41.0,26.1,55,29.95,10.0,NW,4.6,-,N/A,,Overcast,310,2012-11-04 16:52:00
12:52 PM,41.0,27.0,57,29.95,10.0,Variable,4.6,-,N/A,,Overcast,0,2012-11-04 17:52:00
1:52 PM,41.0,26.1,55,29.94,10.0,NW,8.1,-,N/A,,Overcast,310,2012-11-04 18:52:00
2:52 PM,41.0,26.1,55,29.94,10.0,WNW,3.5,-,N/A,,Overcast,300,2012-11-04 19:52:00
3:52 PM,41.0,26.1,55,29.95,10.0,West,6.9,-,N/A,,Overcast,280,2012-11-04 20:52:00
4:52 PM,39.9,26.1,58,29.95,10.0,West,6.9,-,N/A,,Overcast,260,2012-11-04 21:52:00
5:52 PM,39.0,26.1,60,29.96,10.0,West,4.6,-,N/A,,Overcast,270,2012-11-04 22:52:00
6:52 PM,39.0,27.0,62,29.96,10.0,West,6.9,-,N/A,,Overcast,270,2012-11-04 23:52:00
7:52 PM,37.9,26.1,62,29.97,10.0,WSW,8.1,-,N/A,,Overcast,240,2012-11-05 00:52:00
8:52 PM,37.9,25.0,60,29.99,10.0,WNW,6.9,-,N/A,,Overcast,290,2012-11-05 01:52:00
9:52 PM,37.0,25.0,62,29.99,10.0,West,8.1,-,N/A,,Overcast,280,2012-11-05 02:52:00
10:52 PM,36.0,25.0,64,29.99,10.0,WNW,6.9,-,N/A,,Overcast,290,2012-11-05 03:52:00